Regional Weather Roundup
Issued by NWS Raleigh/Durham, NC

Home | Current Version | Previous Version | Text Only | Print | Product List | Glossary On
Versions: 1 2 3 4 5 6 7 8 9 10 11 12 13 14 15 16 17 18 19 20 21 22 23 24 25 26 27 28 29 30 31 32 33 34 35 36 37 38 39 40 41 42 43 44 45 46 47 48 49 50
000
ASUS42 KRAH 291410
RWRRAH
NORTH CAROLINA WEATHER ROUNDUP
NATIONAL WEATHER SERVICE RALEIGH NC
1000 AM EDT TUE JUL 29 2014

NOTE: "FAIR" INDICATES FEW OR NO CLOUDS BELOW 12,000 FEET WITH NO
SIGNIFICANT WEATHER AND/OR OBSTRUCTIONS TO VISIBILITY.

NCZ001-053-055-056-065-067-291500-
WESTERN NORTH CAROLINA

CITY           SKY/WX    TMP DP  RH WIND       PRES   REMARKS
ASHEVILLE      SUNNY     66  55  67 N9        30.05S
JEFFERSON      PTSUNNY   63  48  59 N7        30.06S
MORGANTON      SUNNY     70  56  59 CALM      30.05S
HICKORY        SUNNY     72  55  55 NE6       30.00S
RUTHERFORDTON  SUNNY     71  58  64 N7        30.01S
MOUNT AIRY     MOSUNNY   73  60  64 CALM      30.00S
BOONE          SUNNY     62  48  58 NW10      30.07R
$$

NCZ021-022-025-041-071-084-088-291500-
CENTRAL NORTH CAROLINA

CITY           SKY/WX    TMP DP  RH WIND       PRES   REMARKS
CHARLOTTE      SUNNY     75  55  49 N8        29.99S
GREENSBORO     MOSUNNY   73  56  54 VRB6      29.98F
WINSTON-SALEM  CLOUDY    71  57  61 N7        30.01R
RALEIGH-DURHAM MOSUNNY   72  58  61 NE8       29.96F
FORT BRAGG     MOSUNNY   74  60  60 NE6       29.95R
FAYETTEVILLE   CLOUDY    77  60  55 VRB7      29.94S
BURLINGTON     CLOUDY    74  55  51 N9        29.98S
LAURINBURG     MOSUNNY   76  59  55 NE12      29.95S
$$

NCZ011-015-027-028-043-044-047-080-103-291500-
NORTHEASTERN NORTH CAROLINA

CITY           SKY/WX    TMP DP  RH WIND       PRES   REMARKS
ROCKY MT-WILSO PTSUNNY   73  60  63 N10       29.94S
GREENVILLE     MOSUNNY   73  61  64 NE9       29.95S
WASHINGTON     SUNNY     73  61  67 N9        29.93S
ELIZABETH CITY CLOUDY    75  64  68 N8        29.91S
MANTEO         NOT AVBL
CAPE HATTERAS  SUNNY     81  67  62 NE8       29.88S
$$

NCZ078-087-090-091-093-098-101-291500-
SOUTHEASTERN NORTH CAROLINA

CITY           SKY/WX    TMP DP  RH WIND       PRES   REMARKS
LUMBERTON      SUNNY     76  61  59 NE7       29.93S
GOLDSBORO      MOSUNNY   74  64  70 NE8       29.92S
KINSTON        SUNNY     73  61  64 NE9       29.94S
KENANSVILLE    SUNNY     74  60  60 NE5       29.94S
NEW BERN       SUNNY     76  63  64 N10       29.92S
CHERRY POINT   MOSUNNY   77  64  64 N12       29.90S
BEAUFORT       SUNNY     79  67  66 N12       29.89R
JACKSONVILLE   SUNNY     76  63  64 N9        29.90S
WILMINGTON     SUNNY     78  63  59 NE12      29.90S
$$




USA.gov is the U.S. government's official web portal to all federal, state and local government web resources and services.